Theta_e
313 313 314 314 314 311 309 308 307 307 307 306 306 307 308 310 311 312 315 318 322 322 320 320 318 317 315 315 314 314 314 314 313 312 312 312 312 311 311 310 310 310 309
313 313 312 312 312 311 308 307 305 305 304 304 304 304 304 304 306 308 313 313 321 322 321 320 317 317 316 315 314 314 313 312 311 311 310 310 310 309 309 308 308 308 307
314 313 312 312 312 311 308 308 305 305 304 304 304 303 302 302 301 303 304 305 313 319 321 320 318 318 316 315 314 313 313 312 311 310 309 308 308 307 307 306 306 306 305
316 316 316 315 314 312 310 307 304 303 303 303 302 302 301 300 300 299 299 300 302 305 314 320 318 317 316 315 314 313 312 311 310 309 308 307 306 306 305 305 304 304 304
318 318 316 316 313 312 309 307 302 302 300 299 299 297 296 297 298 298 298 298 300 301 302 313 317 315 315 315 315 314 313 311 309 308 307 306 305 304 304 303 302 302 302
320 319 317 315 313 312 309 306 303 299 298 298 295 293 291 290 291 294 297 297 296 297 297 298 299 302 315 315 314 314 313 311 309 307 306 305 304 303 302 301 301 301 301
323 320 319 316 314 312 310 308 302 295 294 292 292 292 290 290 289 289 291 293 295 295 295 295 294 296 299 314 314 314 313 313 310 307 306 304 303 302 301 301 300 300 300
326 323 320 317 314 313 310 306 301 295 294 294 294 291 291 292 288 290 288 292 294 294 293 294 294 295 296 297 302 313 313 313 311 308 306 304 303 301 301 300 299 299 300
328 326 323 321 316 314 311 307 304 303 297 292 293 296 287 290 286 288 289 289 291 293 291 293 293 293 294 295 300 305 311 311 311 309 306 304 302 301 300 299 299 299 299
329 327 325 324 319 316 314 309 307 305 304 295 295 294 293 292 289 290 284 287 288 289 292 292 292 291 292 292 295 298 301 309 308 307 306 304 302 300 299 299 299 299 299
327 327 326 325 322 318 316 312 308 306 306 302 297 292 295 291 288 287 292 286 283 288 289 291 291 291 289 291 292 295 301 304 305 304 303 302 300 299 299 298 299 298 298
323 324 322 324 323 319 317 314 310 307 306 306 301 303 298 292 293 290 287 291 285 285 287 288 289 290 291 291 292 294 299 302 303 301 300 299 298 297 297 298 298 298 298
311 318 317 317 320 319 318 316 311 309 306 305 305 301 303 301 303 294 295 294 287 286 284 287 287 289 290 290 290 293 296 300 300 299 298 297 296 296 296 297 297 296 297
311 312 316 317 317 317 316 316 313 309 307 305 304 304 302 303 302 300 296 294 292 285 284 285 286 287 288 289 290 292 291 295 297 297 297 296 295 295 296 295 296 296 296
304 304 305 312 314 315 313 314 313 309 308 306 305 304 304 303 303 301 299 298 297 295 296 285 285 286 287 288 289 289 289 291 294 295 296 296 295 295 295 295 295 296 296
300 299 299 300 302 307 311 311 311 311 308 307 305 304 303 304 302 301 299 297 297 296 294 291 285 285 286 286 288 287 287 288 291 293 294 295 295 294 294 293 295 294 295
298 298 297 297 299 299 300 304 306 307 306 306 306 303 302 303 302 300 297 296 294 294 292 296 285 285 285 285 285 286 286 286 287 290 293 294 294 293 293 293 293 293 293
296 296 296 295 296 298 298 299 301 303 303 302 303 303 303 301 300 301 297 294 294 294 293 292 283 282 283 284 284 284 284 285 284 288 292 293 293 292 291 292 292 292 290
293 293 293 293 294 296 299 301 301 301 301 302 302 300 301 298 297 297 297 293 293 292 292 291 283 282 282 283 282 283 283 283 284 285 290 291 292 292 291 292 291 289 287
290 290 291 291 292 292 295 298 299 299 299 300 300 300 299 297 297 296 295 294 292 290 289 289 283 281 281 282 282 280 280 282 281 283 286 288 289 289 290 291 289 287 285
288 288 287 288 288 289 292 293 294 295 295 296 296 296 296 295 293 296 294 294 290 288 286 286 285 281 280 279 279 281 280 279 280 281 281 283 283 284 285 287 284 284 284
285 285 285 285 286 289 292 294 294 292 291 291 292 292 291 289 291 293 295 295 291 288 286 286 285 282 282 281 281 279 279 277 276 281 279 279 281 280 281 281 283 284 284
283 284 283 284 285 285 290 292 292 290 290 290 290 289 287 287 287 289 291 293 293 292 293 288 286 284 282 281 280 279 279 279 279 279 281 278 280 279 280 281 284 284 283
282 282 283 282 282 283 289 290 290 288 288 288 288 288 288 287 286 286 286 286 287 288 289 289 287 285 284 283 282 282 281 281 279 279 281 276 278 278 279 278 284 283 281
281 281 281 280 279 280 286 288 288 285 286 286 286 286 286 286 286 289 285 285 285 285 288 290 287 287 287 286 284 282 279 278 275 276 279 277 275 274 274 274 274 280 279
280 279 279 278 277 277 283 287 287 285 285 285 284 284 284 286 287 287 286 284 283 282 283 283 284 285 286 285 286 283 281 279 276 274 277 275 272 273 270 271 271 272 272
Wind_Speed
4 4 4 3 3 3 3 3 3 4 4 4 3 4 5 4 5 2 2 10 9 10 11 9 9 9 8 9 9 10 11 11 11 11 11 12 12 12 12 12 12 13 13
4 4 4 4 4 4 3 3 4 4 3 3 4 3 4 3 5 4 4 4 11 9 11 12 9 9 10 9 9 9 9 10 10 10 10 10 10 11 10 10 10 10 11
6 6 4 4 4 4 5 4 3 3 3 2 4 4 3 3 4 4 3 2 5 10 11 12 11 11 10 10 10 9 10 10 10 10 9 9 9 9 9 8 8 8 8
8 7 6 6 4 4 3 2 2 2 2 2 0 1 2 4 4 5 3 2 2 3 6 12 13 13 12 11 11 11 10 10 10 9 9 8 8 7 7 6 6 5 6
10 9 8 7 7 5 4 4 2 3 2 2 3 1 2 3 3 2 2 5 5 5 4 7 12 13 15 14 13 12 12 11 10 9 8 7 6 6 5 4 4 3 4
12 10 7 8 8 7 5 5 4 2 2 3 2 1 2 3 3 3 3 3 3 4 4 5 3 4 13 17 15 14 14 13 11 10 9 8 6 5 3 2 1 1 3
13 12 8 9 9 10 11 10 5 5 1 3 3 2 3 4 4 5 5 4 4 4 5 5 4 3 4 20 20 17 16 16 14 12 11 9 7 6 4 3 2 2 3
14 13 12 10 12 9 11 12 11 4 3 8 4 2 2 3 6 9 5 7 10 6 7 6 6 5 5 4 5 21 21 18 17 15 13 11 9 7 6 5 4 3 5
13 14 14 12 12 11 10 11 12 14 9 6 7 6 2 7 0 2 11 8 8 7 6 8 8 8 7 6 8 9 19 19 19 17 15 13 11 9 8 7 5 5 5
12 13 14 14 13 11 12 13 12 14 9 10 5 9 4 3 5 3 3 6 9 10 12 9 10 8 7 5 9 10 8 15 16 17 16 14 13 11 10 8 6 6 5
11 11 13 14 13 11 13 14 13 14 12 9 10 4 11 3 2 3 6 3 3 10 10 9 8 7 7 8 6 9 13 14 14 14 15 15 14 13 11 9 7 6 6
7 9 8 11 12 12 13 13 14 16 15 15 11 12 9 7 13 9 9 10 4 5 10 10 11 10 9 9 10 13 16 19 19 17 17 17 16 14 11 9 8 6 6
4 9 8 8 8 11 11 11 12 14 15 14 16 12 12 12 8 7 9 5 7 3 3 8 10 11 11 10 11 16 19 20 19 19 19 18 17 15 12 9 8 6 6
6 7 9 9 8 7 9 9 8 11 12 13 15 14 10 11 9 9 8 7 8 5 5 7 8 11 11 11 15 23 12 20 21 23 21 21 18 15 12 9 9 9 9
4 6 7 9 10 10 8 9 8 9 11 12 14 14 13 11 10 10 9 11 11 10 13 8 8 13 12 11 15 14 13 21 26 25 24 21 20 16 13 11 11 11 13
4 6 6 7 7 10 11 10 10 9 9 9 9 13 12 11 11 9 9 10 10 13 16 4 9 6 11 10 15 15 16 22 28 25 25 24 22 17 14 7 13 11 14
6 7 7 7 8 8 8 11 13 12 13 12 11 11 14 13 10 10 8 10 11 11 14 8 3 5 10 12 11 12 13 13 12 26 26 24 21 16 13 12 13 12 11
6 7 7 7 8 9 10 11 13 13 14 15 15 15 15 10 14 13 9 13 12 11 10 17 3 5 8 13 11 13 10 10 10 21 26 23 20 17 12 14 13 12 9
6 6 6 7 8 10 10 12 16 14 14 15 14 13 15 12 13 10 11 10 10 10 11 11 4 3 3 8 9 10 11 10 9 18 25 22 20 17 15 16 14 9 5
7 6 6 7 7 8 10 12 12 14 14 13 13 13 12 13 15 13 12 12 11 10 10 9 5 4 3 7 9 10 9 8 9 8 14 14 18 15 17 13 12 8 7
8 7 8 7 7 7 7 10 11 13 13 13 12 11 12 12 14 15 10 10 10 10 8 9 8 5 6 6 14 9 8 6 5 4 7 7 6 5 5 10 6 9 8
7 6 7 7 9 7 12 15 16 11 10 11 12 9 8 9 11 16 18 19 15 12 13 10 10 10 12 9 9 10 9 9 7 6 8 5 5 4 5 5 9 10 10
8 8 7 7 9 8 15 17 18 11 10 9 9 8 6 6 9 9 14 18 20 24 22 13 12 12 8 11 12 12 10 10 6 6 7 5 5 6 5 6 12 12 10
9 9 9 8 9 7 15 16 15 9 9 9 8 8 9 8 8 9 9 10 11 11 14 11 10 7 9 13 15 12 12 8 7 5 5 5 4 4 3 3 13 12 11
8 8 6 8 8 8 15 15 11 5 8 9 7 8 9 9 12 16 9 10 9 8 8 12 11 15 17 21 14 10 8 9 3 2 4 4 2 3 2 3 2 10 12
9 7 8 6 7 8 14 14 11 4 7 6 4 6 11 11 13 15 10 9 8 6 7 7 6 9 12 15 20 10 11 11 5 2 4 4 3 4 2 1 2 1 4
Wind_Direction
163 150 157 157 150 139 146 153 150 148 142 136 129 134 130 153 129 148 149 138 152 165 157 159 154 145 152 145 142 136 129 124 121 116 112 107 103 98 92 87 80 74 68
158 162 163 174 168 160 144 149 168 165 149 151 156 165 166 186 142 167 137 158 164 176 179 171 177 170 169 162 158 150 144 137 134 127 123 118 112 105 99 91 83 74 66
171 168 169 187 185 173 167 169 165 149 160 175 179 173 154 228 182 144 137 174 162 179 193 190 190 189 186 184 173 173 162 158 154 148 140 131 123 115 107 97 88 76 64
175 178 183 191 169 171 154 140 126 141 187 174 185 185 186 192 191 172 180 203 227 176 223 198 204 193 199 194 197 190 185 175 170 165 157 148 140 129 117 101 88 73 59
186 189 191 188 164 170 166 169 151 147 170 150 133 66 343 322 295 324 221 206 205 184 203 230 205 209 206 205 208 205 196 192 183 180 176 166 158 144 132 117 95 60 39
196 197 196 182 170 175 173 175 162 126 153 158 119 137 318 280 286 242 248 297 275 226 206 223 203 200 201 210 209 210 211 205 196 194 193 186 180 166 162 152 103 19 8
198 201 200 187 186 184 192 185 156 160 140 137 114 271 238 229 245 240 231 206 235 257 236 206 228 217 226 210 211 213 210 205 204 201 205 202 198 198 202 222 255 310 336
200 202 202 200 193 192 190 181 177 155 151 179 153 352 247 265 223 231 218 220 217 203 224 224 205 224 216 228 225 212 217 208 206 203 204 207 212 215 221 237 258 291 307
205 204 208 200 195 195 197 192 195 191 192 189 195 153 141 243 47 172 223 224 227 226 215 219 234 206 204 201 210 228 220 218 208 207 204 207 214 219 229 243 256 273 293
209 207 207 214 199 199 198 199 197 200 184 195 202 237 221 160 209 276 247 233 221 226 221 227 209 220 211 207 196 207 218 224 219 211 209 209 214 221 229 237 250 264 288
216 215 211 213 211 204 209 202 197 202 209 195 204 157 222 182 208 265 258 228 234 234 230 230 234 223 218 204 215 199 186 204 208 213 209 213 218 222 228 233 243 262 289
224 226 223 214 212 208 208 204 202 204 206 219 209 214 190 184 213 204 230 240 222 217 221 214 210 221 201 216 206 202 194 198 200 207 211 214 217 221 225 232 242 260 290
219 231 224 224 219 216 216 209 205 211 211 213 214 218 225 228 224 208 233 241 239 217 233 228 217 213 214 194 203 200 196 203 207 214 215 218 218 217 219 226 238 258 282
226 230 236 240 236 231 217 217 214 210 210 217 223 223 227 235 229 215 219 212 249 218 214 233 214 220 208 204 203 198 195 196 211 223 218 218 217 215 212 217 235 251 265
245 235 227 235 241 242 232 222 218 215 214 217 223 223 226 227 228 223 216 220 233 264 249 205 212 207 210 205 204 199 199 207 214 220 224 218 216 210 206 215 240 250 264
248 245 243 235 236 243 248 243 246 237 221 222 219 224 225 230 230 224 220 221 224 242 268 160 212 182 201 204 203 199 198 198 212 213 221 219 212 205 207 202 239 249 263
241 240 235 232 234 233 229 237 243 243 241 241 233 225 228 226 231 228 215 218 221 222 249 252 178 174 194 197 196 199 196 186 196 208 218 218 209 200 201 220 236 246 264
271 252 248 241 238 234 228 225 237 238 241 244 243 244 246 231 233 232 219 219 223 221 235 257 160 181 193 198 190 190 189 183 183 208 215 210 201 202 196 222 231 238 250
282 276 256 247 242 239 246 249 252 248 243 242 239 233 235 224 232 228 227 220 222 223 226 242 200 171 169 186 184 188 191 185 178 196 205 203 201 198 207 220 231 228 219
301 290 271 261 254 250 241 249 251 254 255 249 243 239 233 227 230 228 229 228 222 218 214 218 191 180 174 177 183 182 186 185 178 182 197 196 201 191 217 217 224 201 184
311 299 294 282 263 255 251 247 248 252 253 253 247 241 240 237 232 233 232 233 213 213 209 212 211 190 177 171 191 176 182 164 162 175 176 188 185 182 185 221 179 179 207
298 294 293 286 289 276 268 257 265 256 251 249 251 242 234 237 244 245 243 237 210 206 217 213 221 217 207 189 172 171 161 157 177 178 178 171 161 164 183 186 204 201 211
313 307 302 295 292 284 285 277 267 258 254 249 249 249 239 222 225 240 248 246 238 225 221 214 221 211 191 178 162 168 177 177 167 144 169 156 164 191 179 193 216 207 204
310 311 310 306 300 292 294 295 287 268 259 250 241 242 250 246 220 227 240 244 239 233 230 228 226 201 180 176 176 176 166 149 97 123 142 169 150 169 153 176 206 195 193
310 304 297 300 299 299 301 302 299 263 262 263 249 242 242 247 222 231 237 244 240 231 225 217 168 178 172 174 159 136 148 145 109 142 169 119 142 124 149 165 187 220 180
294 297 297 280 277 289 305 307 303 267 273 275 246 249 245 253 249 239 238 229 230 197 158 149 150 163 160 163 160 166 158 163 129 110 172 117 136 134 179 123 165 36 137